Simultaneous Nadir Overpasses (SNOs) Predictions

Prediction of SNOs between LANDSAT-8 and NOAA-19 Satellite Orbit:

Table of predicted SNOs for the next 14.0 days since TLE Epoch: 7/27/2024
Index Date (LANDSAT-8) Time (LANDSAT-8) Lat,Lon (LANDSAT-8) SZA (LANDSAT-8 ) Date (NOAA-19) Time (NOAA-19) Lat,Lon (NOAA-19) SZA (NOAA-19 ) Distance(km) Time Diff (sec)
1 07/27/2024 07:49:54 80.60, 95.82 62.98 07/27/2024 07:49:41 80.60, 95.73 62.96 1.70 13
2 07/27/2024 08:39:19 -80.65, -95.97 116.93 07/27/2024 08:40:32 -80.65, -96.06 116.91 1.71 73
3 07/29/2024 14:13:05 80.59, -0.11 63.49 07/29/2024 14:12:31 80.59, -0.21 63.46 1.77 34
4 07/29/2024 15:02:30 -80.64, 168.11 116.41 07/29/2024 15:03:22 -80.64, 168.05 116.40 1.44 52
5 07/31/2024 20:36:14 80.59, -95.86 64.05 07/31/2024 20:35:19 80.59, -95.87 64.03 0.74 55
6 07/31/2024 21:25:40 -80.62, 72.05 115.90 07/31/2024 21:26:11 -80.62, 72.09 115.88 0.75 31
7 08/03/2024 03:48:50 -80.61, -23.82 115.33 08/03/2024 03:49:01 -80.60, -23.92 115.34 1.96 11
8 08/05/2024 10:12:00 -80.59,-119.84 114.75 08/05/2024 10:11:51 -80.58,-119.99 114.78 2.85 9
9 08/07/2024 16:35:09 -80.58, 144.32 114.13 08/07/2024 16:34:40 -80.58, 144.22 114.15 2.04 29
10 08/07/2024 17:24:34 80.61, -47.70 65.94 08/07/2024 17:25:40 80.62, -47.53 65.99 3.25 66
11 08/09/2024 22:58:18 -80.57, 48.34 113.50 08/09/2024 22:57:29 -80.57, 48.38 113.52 0.62 49



Historial Predications of SNOs between LANDSAT-8 and NOAA-19
